FW0041 Weather Reports


Display with metric or nautical units.
time (UTC)temp
F
wind
direction
speed
MPH
gust
MPH
rain 1hr
in
rain 24hr
in
rain mn
in
humidity
%
barometer
mb
20260510230046 89 179 1.0 5.0 0.00 1.68 0.01 61 1012.2
20260510224516 90 34 1.0 3.0 0.00 1.68 0.01 60 1012.2
20260510223034 91 34 2.0 4.0 0.00 1.68 0.01 57 1012.4
20260510221601 91 351 0.0 3.0 0.00 1.68 0.01 55 1012.4
20260510220014 91 351 1.0 4.0 0.00 1.68 0.01 56 1012.5
20260510214540 90 351 1.0 3.0 0.00 1.68 0.01 54 1012.8
20260510213007 91 351 2.0 5.0 0.00 1.68 0.01 51 1012.9
20260510211530 92 245 1.0 2.0 0.00 1.68 0.01 52 1013.1
20260510210046 91 244 1.0 3.0 0.00 1.68 0.01 53 1013.2
20260510204515 91 232 0.0 3.0 0.00 1.68 0.01 52 1013.2
20260510203031 91 228 0.0 3.0 0.00 1.68 0.01 54 1013.1
20260510201542 90 240 2.0 3.0 0.00 1.68 0.01 57 1013.1
20260510200005 91 261 0.0 4.0 0.00 1.68 0.01 54 1013.2
20260510194532 92 185 1.0 3.0 0.00 1.68 0.01 52 1013.1
20260510193047 91 189 1.0 3.0 0.00 1.68 0.01 54 1013.2
20260510191508 91 119 1.0 4.0 0.00 1.68 0.01 55 1013.0
20260510190033 90 155 0.0 3.0 0.00 1.68 0.01 55 1013.2
20260510184551 90 218 0.0 5.0 0.00 1.68 0.01 60 1013.1
20260510183011 89 143 1.0 6.0 0.00 1.68 0.01 59 1013.1
20260510181529 88 232 1.0 5.0 0.00 1.68 0.01 63 1013.3
20260510180111 87 196 1.0 7.0 0.00 1.68 0.01 64 1013.4
20260510174505 87 165 1.0 3.0 0.00 1.68 0.01 68 1013.6
20260510173031 86 169 1.0 6.0 0.00 1.68 0.01 68 1013.7
20260510171543 85 165 1.0 6.0 0.00 1.68 0.01 74 1014.0
20260510170002 83 156 0.0 4.0 0.00 1.68 0.01 78 1014.2
20260510164525 82 169 1.0 6.0 0.00 1.68 0.01 83 1014.4
20260510163030 80 183 1.0 5.0 0.00 1.68 0.01 89 1014.5
20260510161600 78 178 1.0 3.0 0.00 1.68 0.01 89 1014.7
20260510160113 78 118 0.0 3.0 0.00 1.68 0.01 88 1014.8
20260510154519 77 118 1.0 3.0 0.00 1.68 0.01 88 1015.0
20260510153037 76 81 1.0 3.0 0.00 1.68 0.01 88 1015.2
20260510151557 75 81 0.0 2.0 0.00 1.68 0.01 88 1015.1
20260510150015 75 80 0.0 2.0 0.00 1.68 0.01 88 1015.2
20260510144545 75 80 0.0 0.0 0.00 1.68 0.01 88 1015.1
20260510143003 74 80 0.0 3.0 0.00 1.68 0.01 88 1015.1
20260510141534 74 80 0.0 0.0 0.00 1.68 0.01 89 1015.3
20260510140046 74 80 0.0 2.0 0.00 1.68 0.01 89 1015.3
20260510134511 73 82 0.0 2.0 0.00 1.68 0.01 89 1015.3
20260510133033 73 97 0.0 1.0 0.00 1.68 0.01 89 1015.3
20260510131544 73 97 0.0 3.0 0.00 1.68 0.01 89 1015.1
20260510130016 72 97 0.0 1.0 0.00 1.68 0.01 89 1014.8
20260510124528 72 97 0.0 1.0 0.00 1.68 0.01 89 1014.3
20260510123059 72 97 0.0 0.0 0.00 1.68 0.01 89 1014.1
20260510121508 72 97 0.0 0.0 0.00 1.68 0.01 89 1013.7
20260510120031 71 97 0.0 0.0 0.00 1.68 0.01 89 1013.5
20260510114548 71 97 0.0 0.0 0.00 1.68 0.01 89 1013.4
20260510113015 71 97 0.0 0.0 0.00 1.68 0.01 89 1013.1
20260510111539 71 97 0.0 0.0 0.00 1.68 0.01 89 1013.0
20260510110100 71 97 0.0 0.0 0.00 1.68 0.01 89 1012.4
20260510104517 71 97 0.0 0.0 0.00 1.68 0.01 89 1012.0
20260510103034 71 97 0.0 0.0 0.00 1.68 0.01 89 1011.7
20260510101551 71 97 0.0 0.0 0.00 1.68 0.01 89 1011.5
20260510100018 71 97 0.0 0.0 0.00 1.68 0.01 89 1011.4
20260510094542 71 97 0.0 0.0 0.00 1.68 0.01 89 1011.2
20260510093006 70 97 0.0 0.0 0.00 1.68 0.01 89 1011.2
20260510091540 70 97 0.0 0.0 0.01 1.68 0.01 89 1011.0
20260510090056 70 97 0.0 0.0 0.01 1.68 0.01 89 1010.9
20260510084518 70 97 0.0 0.0 0.01 1.68 0.01 89 1010.8
20260510083044 70 97 0.0 0.0 0.01 1.68 0.01 89 1011.0
20260510081623 70 97 0.0 0.0 0.00 1.67 0.00 90 1011.2
20260510080015 70 97 0.0 0.0 0.00 1.67 0.00 90 1011.3
20260510074534 70 97 0.0 0.0 0.00 1.67 0.00 90 1011.3
20260510073101 70 97 0.0 0.0 0.00 1.67 0.00 90 1011.1
20260510071518 70 97 0.0 0.0 0.00 1.67 0.00 90 1011.1
20260510070037 70 97 0.0 0.0 0.00 1.67 0.00 90 1011.1
20260510064602 70 97 0.0 0.0 0.00 1.67 0.00 90 1011.2
20260510063036 70 97 0.0 0.0 0.00 1.67 0.00 90 1011.3
20260510061556 70 97 0.0 0.0 0.00 1.67 0.00 90 1011.5
20260510060040 70 97 0.0 0.0 0.00 1.67 0.00 89 1011.7
20260510054546 70 97 0.0 0.0 0.00 1.67 0.00 89 1011.6
20260510053013 70 97 0.0 0.0 0.00 1.67 0.00 90 1011.7
20260510051534 70 97 0.0 0.0 0.00 1.67 0.00 89 1011.8
20260510050112 70 97 0.0 0.0 0.00 1.67 0.00 89 1011.7
20260510044607 70 97 0.0 0.0 0.00 1.67 1.67 89 1011.9
20260510044500 70 97 0.0 0.0 0.00 1.67 1.67 89 1011.8
20260510043037 70 97 0.0 0.0 0.00 1.67 1.67 89 1011.9
20260510041551 70 97 0.0 0.0 0.00 1.67 1.67 89 1011.9